Regional Weather Roundup
Issued by NWS

Home | Current Version | Previous Version | Graphics & Text | Print | Product List | Glossary On
Versions: 1 2 3 4 5 6 7 8 9 10 11 12 13 14 15 16 17 18 19 20 21 22 23 24 25 26 27 28 29 30 31 32 33 34 35 36 37 38 39 40 41 42 43 44 45 46 47 48 49 50
000
ASUS43 KIND 291500
RWRIN

WEATHER ROUNDUP FOR INDIANA
NATIONAL WEATHER SERVICE INDIANAPOLIS IN
1100 AM EDT MON MAY 29 2017

NOTE: "FAIR" INDICATES FEW OR NO CLOUDS BELOW 12,000 FEET WITH NO
SIGNIFICANT WEATHER AND/OR OBSTRUCTIONS TO VISIBILITY.

* - STATION DOES NOT REPORT WEATHER SUCH AS PRECIPITATION OR FOG.

+ - STATION NOT QUALITY CONTROLLED BY THE NATIONAL WEATHER SERVICE.
    USE DATA WITH CAUTION...ESPECIALLY DEWPOINT AND RELATIVE
    HUMIDITY OBSERVATIONS.

INZ001>003-010>013-019-020-291600-
NORTHWEST INDIANA

CITY           SKY/WX    TMP DP  RH WIND       PRES   REMARKS
GARY /AIRPORT/ MOSUNNY   75  41  29 W14       29.83R
KNOX *+        SUNNY     72  41  33 W10       29.84S
LA PORTE +     SUNNY     72  51  47 W10       29.83S
MICHIGAN CITY+ SUNNY     73  50  43 W9        29.83R
MONTICELLO +   SUNNY     73  55  53 SW12G17   29.86R
RENSSELAER +   SUNNY     73  43  33 W13       29.85S

$$

LMZ046-743>745-291600-
SOUTHERN LAKE MICHIGAN

STATION/POSITION TIME  TEMP    WIND        PRES    WAVE
                       AIR SEA DIR/SP/G            HT
                 (UTC) (F)     (DEG/KT/KT) (MB)    (FT)
BURNS HARBOR     1440   67     250/ 10/ 13 1010.5R
MICHIGAN CITY    1430   65     230/ 14/ 15   N/A
5NW MICH CITY    1450   60 56  250/  6/  8   N/A     1

$$

INZ004-005-014>016-021>024-291600-
NORTH CENTRAL INDIANA

CITY           SKY/WX    TMP DP  RH WIND       PRES   REMARKS
ELKHART        SUNNY     73  50  43 W14       29.82S
GOSHEN         SUNNY     72  54  53 SW13      29.83R
SOUTH BEND     SUNNY     71  54  54 SW13      29.82S
WARSAW +       SUNNY     72  54  53 W8        29.84S

$$

INZ006>009-017-018-025>027-291600-
NORTHEAST INDIANA

CITY           SKY/WX    TMP DP  RH WIND       PRES   REMARKS
ANGOLA *+      SUNNY     72  55  56 SW12      29.82S
AUBURN +       SUNNY     70  55  60 SW6       29.85S
FORT WAYNE     MOSUNNY   71  58  63 SW14      29.85S
KENDALLVILLE + SUNNY     72  56  55 SW10      29.84S

$$

INZ028-029-035-036-043>045-051>053-291600-
WEST CENTRAL INDIANA

CITY           SKY/WX    TMP DP  RH WIND       PRES   REMARKS
CRAWFORDSVL +  SUNNY    -18 -26  67 SW6       29.89F WCI -33
GREENCASTLE +  SUNNY     70  57  64 SW3       29.92S
LAFAYETTE      SUNNY     72  57  59 SW7       29.86F
TERRE HAUTE    SUNNY     74  57  55 SW6       29.91S

$$

INZ030>032-037>040-046>048-054>057-064-065-291600-
CENTRAL INDIANA

CITY           SKY/WX    TMP DP  RH WIND       PRES   REMARKS
CP ATTERBURY + SUNNY     73  59  60 SW9       29.93S
FRANKFORT +    MOSUNNY   74  61  63 W10       29.90S
GREENWOOD *+   MOSUNNY   73  58  60 W10       29.92S
INDIANAPOLIS   MOSUNNY   72  58  61 W12       29.90S
-EAGLE CREEK   SUNNY     73  56  54 SW7       29.90R
KOKOMO +       SUNNY     73  56  54 W8        29.88S
SHELBYVILLE    MOSUNNY   75  59  57 SW10      29.90F

$$

INZ033-034-041-042-049-050-058-059-291600-
EAST CENTRAL INDIANA

CITY           SKY/WX    TMP DP  RH WIND       PRES   REMARKS
MUNCIE         SUNNY     74  56  53 W12G21    29.88S
RICHMOND +     SUNNY     70  59  68 SW13      29.93S

$$

INZ060-061-067>069-081>083-085>088-291600-
SOUTHWEST INDIANA

CITY           SKY/WX    TMP DP  RH WIND       PRES   REMARKS
EVANSVILLE     SUNNY     78  61  55 SW8       29.95S
HUNTINGBURG *+ SUNNY     73  65  75 S8        29.96R
WASHINGTON +   SUNNY     75  56  52 SW6       29.92F

$$

INZ062-063-066-070>080-084-089>092-291600-
SOUTH CENTRAL AND SOUTHEAST INDIANA

CITY           SKY/WX    TMP DP  RH WIND       PRES   REMARKS
BLOOMINGTON    SUNNY     74  57  55 SW8       29.92S
MADISON *+     SUNNY     73  59  60 SW5       29.97S
SEYMOUR +      SUNNY     75  61  60 SW8       29.94R

$$





USA.gov is the U.S. government's official web portal to all federal, state and local government web resources and services.